Flag for Sweden Weather past 2 weeks in Norrköping, Sweden

Now
48 °F

Sunny.


Feels Like: 43 °F
Forecast: 44 / 57 °F
Wind: 14 mph from Northwest

Location: Norrkoping Airport

Current Time: Apr 19, 2015 at 12:21:40 PM

Latest Report: Apr 19, 2015 at 11:50 AM


Visibility: 10 mi

Pressure: 30.15 "Hg

Humidity: 62%

Dew point: 36 °F

Location of NorrköpingLocation

Historic Weather in Norrköping — Graph

°F

Norrköping temperature yesterday

Maximum temperature yesterday: 55 °F (at 2:50 PM)
Minimum temperature yesterday: 30 °F (at 5:50 AM)
Average temperature yesterday: 44 °F

Past Weeks' High & Low Weather Summary

 TemperatureHumidityPressure
High61 °F (Apr 11, 2:50 PM)100% (Apr 6, 3:20 AM)30.42 "Hg (Apr 6, 3:20 AM)
Low25 °F (Apr 6, 6:20 AM)20% (Apr 8, 12:20 PM)29.39 "Hg (Apr 15, 6:50 PM)
Average44 °F66%29.98 "Hg
* Reported Apr 4 11:20 AM — Apr 19 11:20 AM, Norrköping, Weather by CustomWeather, © 2015

Note: Actual official high and low records may vary slightly from our data, if they occured in-between our weather recording intervals... More about our weather records

Advertising

Norrköping weather history for previous 24 hours

 ConditionsComfort  
Time TempWeatherWind HumidityBarometerVisibility
11:20 AM
Sun, Apr 19
48 °FPassing clouds.13 mph62%30.18 "HgN/A
10:50 AM48 °FScattered clouds.16 mph62%30.18 "HgN/A
10:20 AM48 °FSunny.14 mph62%30.18 "Hg10 mi
9:50 AM48 °FSunny.13 mph62%30.18 "Hg10 mi
9:20 AM46 °FSunny.10 mph66%30.18 "Hg10 mi
8:50 AM46 °FPassing clouds.8 mph66%30.18 "HgN/A
8:20 AM45 °FSunny.9 mph71%30.21 "Hg10 mi
7:50 AM43 °FSunny.10 mph71%30.21 "Hg10 mi
7:20 AM43 °FScattered clouds.10 mph71%30.21 "HgN/A
6:50 AM43 °FPartly sunny.9 mph71%30.18 "HgN/A
6:20 AM41 °FOvercast.9 mph76%30.18 "HgN/A
5:20 AM43 °FPassing clouds.7 mph71%30.18 "HgN/A
4:50 AM41 °FPassing clouds.6 mph76%30.18 "HgN/A
4:20 AM43 °FOvercast.6 mph71%30.18 "HgN/A
3:50 AM43 °FOvercast.7 mph71%30.18 "HgN/A
3:20 AM45 °FOvercast.7 mph66%30.18 "HgN/A
2:50 AM45 °FOvercast.7 mph66%30.18 "HgN/A
2:20 AM45 °FOvercast.6 mph66%30.18 "HgN/A
1:50 AM45 °FOvercast.6 mph66%30.18 "HgN/A
1:20 AM45 °FOvercast.5 mph61%30.18 "HgN/A
12:50 AM45 °FOvercast.6 mph66%30.15 "HgN/A
12:20 AM45 °FOvercast.5 mph61%30.15 "HgN/A
11:50 PM
Sat, Apr 18
45 °FOvercast.3 mph61%30.15 "HgN/A
11:20 PM45 °FOvercast.6 mph61%30.15 "HgN/A
10:50 PM46 °FOvercast.10 mph57%30.15 "HgN/A
10:20 PM46 °FOvercast.13 mph57%30.12 "HgN/A
9:50 PM48 °FOvercast.8 mph58%30.12 "HgN/A
9:20 PM48 °FOvercast.9 mph54%30.12 "HgN/A
8:50 PM48 °FOvercast.5 mph54%30.09 "HgN/A
8:20 PM48 °FOvercast.7 mph54%30.09 "HgN/A
7:50 PM50 °FOvercast.8 mph50%30.09 "HgN/A
7:20 PM50 °FMostly cloudy.12 mph47%30.09 "HgN/A
6:50 PM52 °FMostly cloudy.10 mph41%30.07 "HgN/A
6:20 PM52 °FOvercast.10 mph41%30.07 "HgN/A
5:50 PM54 °FScattered clouds.12 mph38%30.07 "HgN/A
5:20 PM54 °FPassing clouds.14 mph35%30.07 "HgN/A
4:50 PM54 °FPassing clouds.12 mph35%30.07 "HgN/A
4:20 PM54 °FPassing clouds.12 mph38%30.07 "HgN/A
3:50 PM54 °FCool.13 mph35%30.07 "HgN/A
3:20 PM55 °FRefreshingly cool.13 mph33%30.07 "HgN/A
2:50 PM55 °FRefreshingly cool.12 mph33%30.07 "HgN/A
2:20 PM54 °FCool.10 mph38%30.09 "HgN/A
1:50 PM54 °FPassing clouds.10 mph41%30.09 "HgN/A
1:20 PM52 °FCool.13 mph47%30.09 "HgN/A
12:50 PM52 °FPassing clouds.10 mph50%30.12 "HgN/A
12:20 PM52 °FSunny.12 mph50%30.12 "Hg10 mi
Weather by CustomWeather, © 2015

See weather overviewHow to use our weather pages